[[{"header":{"parameterUnit":"m.s-1","parameterCategory":1,"la1":30.2991,"la2":30.254,"lo1":-89.0895,"lo2":-89.0444,"dy":0.0017,"dx":0.0017,"nx":28,"ny":28,"refTime":"2025-06-18T21:00:00:Z","depth":0,"parameterNumber":2,"parameterNumberName":"U-component_of_WINDS"},"data":[0,0,0,0,0,0,0,0,0,0,0,0,0,0,0,0,0,0,0,0,0,0,0,0,0,0,0,0,0,0,0,0,0,0,0,0,0,0,0,0,0,0,0,0,0,0,0,0,0,0,0,0,0,0,0,0,0,0,4.0978,4.0979,0,4.1071,4.1072,4.1073,4.1001,4.0998,4.0994,4.0991,4.1088,4.1094,4.1099,0,0,0,0,0,0,0,0,0,0,0,0,0,4.0741,4.0746,4.0978,4.098,4.0981,4.1071,4.1072,4.1073,4.1001,4.0997,4.0994,4.099,4.1087,4.1093,4.11,0,0,0,0,0,0,0,0,0,0,0,0,0,4.084,4.0748,4.0978,4.0955,4.0954,4.1071,4.1072,4.1074,4.1002,4.0997,4.0993,4.0988,4.1084,4.1092,4.11,4.1245,0,0,4.1126,4.1129,0,0,0,0,0,0,0,0,4.0835,4.0849,4.0958,4.0957,4.0956,4.1019,4.1024,4.1131,4.1003,4.0984,4.0991,4.0986,4.1069,4.1078,4.1106,4.1249,4.1253,4.1126,4.1131,4.1135,4.1137,0,0,0,0,0,0,0,4.0828,4.0845,4.1015,4.0959,4.0959,4.0941,4.095,4.1044,4.1052,4.0985,4.098,4.0992,4.1068,4.1098,4.1108,4.1255,4.1126,4.1133,4.1138,4.1142,4.1521,4.1526,0,0,0,0,0,0,4.0823,4.0839,4.1012,4.1018,4.0883,4.0949,4.0959,4.1004,4.1051,4.1053,4.0996,4.0988,4.1087,4.1098,4.1111,4.1283,4.1135,4.1142,4.1147,4.1516,4.1522,4.1528,0,0,0,0,0,0,4.0818,4.0839,4.1008,4.0927,4.0947,4.0958,4.1009,4.1008,4.1038,4.1059,4.106,4.1025,4.1083,4.1099,4.1212,4.1285,4.1146,4.1154,4.151,4.1518,4.1525,4.1628,0,0,0,0,0,0,4.0812,4.0838,4.0892,4.0929,4.0952,4.1107,4.1014,4.1013,4.1052,4.1043,4.1087,4.1089,4.1081,4.12,4.122,4.1294,4.116,4.1503,4.1513,4.1523,4.1618,4.1639,4.1656,0,0,0,0,0,4.0804,4.0918,4.0895,4.0916,4.102,4.1112,4.1125,4.1113,4.1059,4.1114,4.1127,4.1088,4.1274,4.1212,4.1234,4.1312,4.1499,4.1511,4.1522,4.161,4.1635,4.1655,0,0,0,0,0,0,4.089,4.0922,4.0898,4.1027,4.1067,4.1099,4.1168,4.1139,4.1196,4.1185,4.1168,4.1178,4.1296,4.1315,4.1246,4.1454,4.1378,4.1394,4.1437,4.1461,4.1479,4.1472,4.1167,0,0,0,0,0,4.0924,4.0995,4.1019,4.1131,4.1153,4.1157,4.1197,4.1184,4.1225,4.1242,4.1263,4.1305,4.1373,4.1418,4.1481,4.1621,4.1629,4.1685,4.1704,4.1719,4.1734,4.1809,4.1835,4.1566,4.1566,4.1566,0,0,4.0995,4.1021,4.1067,4.115,4.1179,4.1254,4.1172,4.1254,4.131,4.1254,4.1361,4.1379,4.1424,4.1551,4.1608,4.1571,4.181,4.1734,4.1746,4.1752,4.1824,4.1849,4.1872,4.1574,4.1572,4.1571,0,0,4.1163,4.119,4.1286,4.1317,4.1363,4.1365,4.1389,4.1425,4.1435,4.1542,4.1502,4.1568,4.1685,4.172,4.1752,4.1934,4.1901,4.1955,4.2054,4.2128,4.2149,4.2167,4.2233,4.2256,4.197,4.197,4.197,0,4.1246,4.1356,4.134,4.1425,4.1463,4.1415,4.1513,4.1545,4.1609,4.1637,4.1593,4.174,4.1767,4.1902,4.1946,4.1974,4.2001,4.195,4.2147,4.2165,4.2183,4.2245,4.2269,4.1976,4.1976,4.1975,4.1975,0,4.1456,4.1533,4.1605,4.1668,4.1714,4.1805,4.1804,4.1852,4.1836,4.1843,4.1953,4.1984,4.2054,4.2085,4.2069,4.2217,4.2193,4.2149,4.2072,4.2215,4.2273,4.2297,4.1986,4.1983,4.1981,4.198,0,0,4.168,4.1733,4.176,4.1788,4.1835,4.1895,4.1985,4.2052,4.2094,4.214,4.2215,4.2316,4.2276,4.2313,4.2301,4.2366,4.2509,4.2314,4.2315,4.235,4.2674,4.2707,4.2735,4.2487,4.2491,4.2495,4.2671,0,4.1851,4.2006,4.1994,4.2141,4.2212,4.2169,4.2247,4.2285,4.2294,4.2357,4.2367,4.2439,4.238,4.2402,4.2464,4.2478,4.2574,4.2465,4.2557,4.2561,4.2547,4.2765,4.28,4.2965,4.2693,4.2697,4.27,0,4.207,4.2123,4.2277,4.2314,4.2343,4.2414,4.2475,4.2535,4.2577,4.2579,4.2622,4.2599,4.269,4.2611,4.2737,4.2664,4.2701,4.2713,4.2719,4.2727,4.2639,4.278,4.3017,4.3042,4.2735,4.2732,4.273,0,4.2219,4.2329,4.2436,4.2461,4.2507,4.2557,4.2579,4.2616,4.2657,4.2711,4.2738,4.2802,4.2837,4.2887,4.2883,4.2826,4.3011,4.2931,4.3016,4.3016,4.3057,4.3055,4.3304,4.3081,4.308,4.308,4.3079,0,4.2411,4.2507,4.2503,4.2569,4.2675,4.2661,4.2768,4.2783,4.2817,4.2886,4.2852,4.2917,4.2907,4.2973,4.297,4.3075,4.3091,4.3096,4.3094,4.3099,4.3099,4.3123,4.3112,4.3087,4.3085,4.3084,4.3083,0,4.2595,4.2597,4.271,4.2743,4.2754,4.2831,4.286,4.2923,4.2929,4.3016,4.3036,4.3046,4.3122,4.3122,4.3209,4.3207,4.3335,4.332,4.3321,4.3318,4.3403,4.3395,4.3677,4.3713,4.3466,4.3469,4.3471,0,4.2717,4.279,4.2831,4.2875,4.2899,4.2969,4.3011,4.3,4.3045,4.3099,4.3156,4.3228,4.3285,4.3407,4.3423,4.3489,4.3476,4.357,4.3486,4.3489,4.3478,4.3474,4.3481,4.3587,4.3589,4.3592,4.3593,0,4.2934,4.2932,4.2993,4.3055,4.3106,4.3155,4.32,4.3237,4.3231,4.3284,4.336,4.3405,4.3493,4.3565,4.3629,4.3651,4.3623,4.362,4.3643,4.3649,4.3646,4.3649,4.3366,4.3614,4.3612,4.361,4.3609,4.3608,4.3092,4.3155,4.3194,4.3263,4.3296,4.3339,4.3399,4.3413,4.3476,4.3546,4.3536,4.3622,4.3663,4.3745,4.3774,4.3841,4.3808,4.3841,4.385,4.3859,4.3868,4.3636,4.3852,4.3852,4.3851,4.3851,4.385,0,4.3307,4.333,4.3394,4.3458,4.3513,4.348,4.3528,4.3577,4.3652,4.3692,4.3749,4.3837,4.3907,4.3929,4.3997,4.4046,4.4035,4.4064,4.4061,4.4067,4.3893,4.3866,4.4073,4.4073,4.4073,4.4073,4.4073,4.4073,4.3426,4.3531,4.3533,4.3653,4.3675,4.3758,4.3789,4.3828,4.386,4.396,4.4018,4.4031,4.4064,4.4134,4.4197,4.4202,4.4229,4.4264,4.4264,4.4101,4.4079,4.4058,4.4032,4.427,4.427,4.4431,4.4433,4.4434]},{"header":{"parameterUnit":"m.s-1","parameterCategory":1,"la1":30.2991,"la2":30.254,"lo1":-89.0895,"lo2":-89.0444,"dy":0.0017,"dx":0.0017,"nx":28,"ny":28,"refTime":"2025-06-18T21:00:00:Z","depth":0,"parameterNumber":3,"parameterNumberName":"V-component_of_WINDS"},"data":[0,0,0,0,0,0,0,0,0,0,0,0,0,0,0,0,0,0,0,0,0,0,0,0,0,0,0,0,0,0,0,0,0,0,0,0,0,0,0,0,0,0,0,0,0,0,0,0,0,0,0,0,0,0,0,0,0,0,-0.9694,-0.9694,0,-0.9722,-0.9722,-0.9722,-0.9718,-0.9718,-0.9717,-0.9717,-0.9745,-0.9746,-0.9748,0,0,0,0,0,0,0,0,0,0,0,0,0,-0.9639,-0.964,-0.9694,-0.9694,-0.9695,-0.9722,-0.9722,-0.9722,-0.9718,-0.9718,-0.9717,-0.9717,-0.9745,-0.9746,-0.9748,0,0,0,0,0,0,0,0,0,0,0,0,0,-0.9664,-0.964,-0.9694,-0.9696,-0.9696,-0.9722,-0.9722,-0.9723,-0.9718,-0.9718,-0.9717,-0.9716,-0.9744,-0.9746,-0.9748,-0.9773,0,0,-0.9753,-0.9754,0,0,0,0,0,0,0,0,-0.9663,-0.9666,-0.9695,-0.9696,-0.9696,-0.9716,-0.9713,-0.9739,-0.9719,-0.971,-0.9717,-0.9716,-0.9736,-0.9738,-0.9745,-0.9774,-0.9775,-0.9754,-0.9755,-0.9755,-0.9756,0,0,0,0,0,0,0,-0.9661,-0.9665,-0.9705,-0.9696,-0.9696,-0.9696,-0.9699,-0.9718,-0.9727,-0.9711,-0.9711,-0.9714,-0.9736,-0.9743,-0.9746,-0.9776,-0.9753,-0.9755,-0.9756,-0.9757,-0.9827,-0.9828,0,0,0,0,0,0,-0.9658,-0.9663,-0.9704,-0.9706,-0.9677,-0.9697,-0.97,-0.971,-0.9726,-0.9728,-0.9714,-0.9714,-0.9741,-0.9744,-0.9747,-0.9777,-0.9755,-0.9757,-0.9758,-0.9827,-0.9828,-0.9828,0,0,0,0,0,0,-0.9657,-0.9662,-0.9703,-0.9685,-0.969,-0.9699,-0.971,-0.9711,-0.9718,-0.9729,-0.9731,-0.972,-0.974,-0.9744,-0.9767,-0.9778,-0.9758,-0.9759,-0.9826,-0.9827,-0.9828,-0.9838,0,0,0,0,0,0,-0.9656,-0.9662,-0.9671,-0.9685,-0.9691,-0.9722,-0.9711,-0.9712,-0.9722,-0.9721,-0.9735,-0.9737,-0.974,-0.9764,-0.9768,-0.978,-0.9761,-0.9825,-0.9826,-0.9828,-0.9837,-0.984,-0.9842,0,0,0,0,0,-0.9654,-0.9673,-0.9672,-0.9676,-0.9703,-0.9723,-0.9726,-0.973,-0.9722,-0.9732,-0.9739,-0.9736,-0.9776,-0.9766,-0.9771,-0.9784,-0.9824,-0.9826,-0.9828,-0.9836,-0.9839,-0.9842,0,0,0,0,0,0,-0.966,-0.9675,-0.9673,-0.9697,-0.9709,-0.9722,-0.9734,-0.9733,-0.9747,-0.9745,-0.9749,-0.9752,-0.9775,-0.9782,-0.977,-0.9809,-0.9799,-0.9802,-0.9804,-0.9807,-0.9809,-0.9807,-0.9762,0,0,0,0,0,-0.9664,-0.9679,-0.9691,-0.9711,-0.9717,-0.9725,-0.9734,-0.9735,-0.9747,-0.9752,-0.9761,-0.9773,-0.9788,-0.9798,-0.9813,-0.9838,-0.9841,-0.9849,-0.9852,-0.9854,-0.9856,-0.987,-0.9874,-0.9834,-0.9834,-0.9834,0,0,-0.9673,-0.9683,-0.9692,-0.9713,-0.9722,-0.9737,-0.9729,-0.9746,-0.9757,-0.9755,-0.9776,-0.9783,-0.9797,-0.9821,-0.9832,-0.9827,-0.9868,-0.9856,-0.9858,-0.9859,-0.9873,-0.9876,-0.988,-0.9836,-0.9835,-0.9835,0,0,-0.9697,-0.9706,-0.9723,-0.9733,-0.9747,-0.9752,-0.9756,-0.977,-0.9774,-0.9796,-0.9795,-0.9809,-0.9835,-0.9845,-0.9853,-0.9882,-0.988,-0.9887,-0.99,-0.9914,-0.9917,-0.992,-0.993,-0.9933,-0.9889,-0.9889,-0.9889,0,-0.9706,-0.9729,-0.9733,-0.975,-0.9759,-0.9758,-0.9776,-0.9785,-0.9803,-0.981,-0.9805,-0.9838,-0.9847,-0.9873,-0.988,-0.9887,-0.9893,-0.9885,-0.9916,-0.9919,-0.9922,-0.9931,-0.9935,-0.989,-0.989,-0.989,-0.989,0,-0.9739,-0.9756,-0.9768,-0.9786,-0.9797,-0.9814,-0.9821,-0.9832,-0.9833,-0.9839,-0.9861,-0.9872,-0.9889,-0.9896,-0.9897,-0.9923,-0.9919,-0.9915,-0.9905,-0.9926,-0.9935,-0.9939,-0.9891,-0.9891,-0.989,-0.989,0,0,-0.9767,-0.9787,-0.9791,-0.98,-0.9815,-0.9828,-0.9846,-0.9863,-0.9872,-0.9885,-0.99,-0.9923,-0.9919,-0.9929,-0.9931,-0.9943,-0.9965,-0.9938,-0.9938,-0.9942,-0.9995,-0.9997,-1.0002,-0.9965,-0.9965,-0.9966,-0.9993,0,-0.9792,-0.9823,-0.9827,-0.9855,-0.987,-0.987,-0.9886,-0.9897,-0.9904,-0.9918,-0.9925,-0.9941,-0.9934,-0.994,-0.9952,-0.996,-0.9976,-0.9958,-0.9979,-0.9979,-0.9975,-1.0006,-1.0009,-1.0035,-0.9997,-0.9998,-0.9998,0,-0.9825,-0.9839,-0.9868,-0.9882,-0.9889,-0.9903,-0.9919,-0.9932,-0.9946,-0.9949,-0.9961,-0.9962,-0.9981,-0.9971,-0.9997,-0.9985,-0.9993,-0.9999,-1.0,-1.0001,-0.9989,-1.0009,-1.0043,-1.0047,-1.0004,-1.0003,-1.0003,0,-0.9842,-0.9868,-0.9889,-0.9896,-0.9913,-0.9923,-0.993,-0.9943,-0.9953,-0.9968,-0.9974,-0.999,-0.9999,-1.0012,-1.0018,-1.001,-1.0044,-1.0034,-1.0047,-1.0047,-1.0054,-1.0053,-1.009,-1.006,-1.006,-1.006,-1.006,0,-0.9869,-0.9887,-0.9897,-0.9909,-0.993,-0.9935,-0.9955,-0.9962,-0.9974,-0.9988,-0.9989,-1.0003,-1.001,-1.0025,-1.003,-1.0051,-1.0055,-1.0058,-1.0059,-1.0058,-1.0058,-1.0063,-1.0062,-1.0061,-1.0061,-1.0061,-1.0061,0,-0.9891,-0.9898,-0.9921,-0.9936,-0.994,-0.9954,-0.9967,-0.9979,-0.9986,-1.0004,-1.0009,-1.0019,-1.0037,-1.0044,-1.0065,-1.0069,-1.0093,-1.0093,-1.0088,-1.0089,-1.0101,-1.01,-1.0143,-1.0148,-1.0115,-1.0116,-1.0116,0,-0.9907,-0.9921,-0.9937,-0.9947,-0.9955,-0.9971,-0.9981,-0.9987,-0.9998,-1.0015,-1.0026,-1.0043,-1.0058,-1.0086,-1.0095,-1.0112,-1.0112,-1.0126,-1.0115,-1.0113,-1.0112,-1.0111,-1.0113,-1.0128,-1.0128,-1.0128,-1.0129,0,-0.9936,-0.9939,-0.9954,-0.997,-0.9983,-0.9996,-1.0009,-1.0017,-1.0025,-1.0037,-1.0055,-1.0066,-1.0088,-1.0106,-1.0124,-1.0132,-1.0132,-1.0132,-1.0136,-1.0135,-1.0132,-1.0133,-1.0094,-1.0131,-1.0131,-1.0131,-1.0131,-1.013,-0.9956,-0.9968,-0.9982,-0.9998,-1.0009,-1.0021,-1.0033,-1.0042,-1.0057,-1.0075,-1.0078,-1.0098,-1.0111,-1.0135,-1.0144,-1.0159,-1.0156,-1.0162,-1.0163,-1.0164,-1.0165,-1.013,-1.0163,-1.0163,-1.0162,-1.0162,-1.0162,0,-0.9984,-0.9993,-1.0008,-1.0026,-1.004,-1.0039,-1.0053,-1.0064,-1.0081,-1.0094,-1.0108,-1.0129,-1.0147,-1.0158,-1.0176,-1.0186,-1.0186,-1.019,-1.0189,-1.0191,-1.0167,-1.0162,-1.019,-1.019,-1.019,-1.019,-1.019,-1.019,-1.0001,-1.0022,-1.0026,-1.0053,-1.0062,-1.008,-1.0089,-1.01,-1.0111,-1.0134,-1.0148,-1.0156,-1.0168,-1.0187,-1.0203,-1.0206,-1.0212,-1.0216,-1.0219,-1.0196,-1.0193,-1.019,-1.0185,-1.0217,-1.0218,-1.0242,-1.0242,-1.0242]}]]